Time,TemperatureF,DewpointF,PressureIn,WindDirection,WindDirectionDegrees,WindSpeedMPH,WindSpeedGustMPH,Humidity,HourlyPrecipIn,Conditions,Clouds,dailyrainin,SoftwareType,DateUTC
2013-02-18 00:11:00,54.6,44.0,30.22,SW,221,12.0,16.0,67,0.00,,,0.00,weatherlink.com 1.10,2013-02-18 06:11:00,
2013-02-18 00:26:00,54.7,45.0,30.22,SSW,205,9.0,17.0,69,0.00,,,0.00,weatherlink.com 1.10,2013-02-18 06:26:00,
2013-02-18 00:41:00,54.8,45.0,30.22,SSW,196,11.0,16.0,69,0.00,,,0.00,weatherlink.com 1.10,2013-02-18 06:41:00,
2013-02-18 00:56:00,54.8,45.0,30.22,SSW,198,15.0,17.0,70,0.00,,,0.00,weatherlink.com 1.10,2013-02-18 06:56:00,
2013-02-18 01:11:00,54.8,46.0,30.22,SSW,207,9.0,17.0,73,0.00,,,0.00,weatherlink.com 1.10,2013-02-18 07:11:00,
2013-02-18 01:26:00,54.8,46.0,30.21,SSW,211,9.0,15.0,73,0.00,,,0.00,weatherlink.com 1.10,2013-02-18 07:26:00,
2013-02-18 01:41:00,54.8,47.0,30.22,SW,215,9.0,14.0,74,0.00,,,0.00,weatherlink.com 1.10,2013-02-18 07:41:00,
2013-02-18 01:56:00,54.8,47.0,30.21,SW,217,13.0,14.0,75,0.00,,,0.00,weatherlink.com 1.10,2013-02-18 07:56:00,
2013-02-18 02:11:00,54.9,47.0,30.21,SSW,209,10.0,13.0,75,0.00,,,0.00,weatherlink.com 1.10,2013-02-18 08:11:00,
2013-02-18 02:26:00,55.0,48.0,30.20,SSW,198,9.0,14.0,77,0.00,,,0.00,weatherlink.com 1.10,2013-02-18 08:26:00,
2013-02-18 02:41:00,55.1,48.0,30.20,South,182,11.0,14.0,76,0.00,,,0.00,weatherlink.com 1.10,2013-02-18 08:41:00,
2013-02-18 02:56:00,55.2,48.0,30.20,SSW,196,10.0,13.0,76,0.00,,,0.00,weatherlink.com 1.10,2013-02-18 08:56:00,
2013-02-18 03:11:00,55.3,48.0,30.19,SW,223,10.0,13.0,76,0.00,,,0.00,weatherlink.com 1.10,2013-02-18 09:11:00,
2013-02-18 03:26:00,55.3,48.0,30.19,SSW,211,7.0,13.0,77,0.00,,,0.00,weatherlink.com 1.10,2013-02-18 09:26:00,
2013-02-18 03:41:00,55.2,48.0,30.19,SSW,210,8.0,12.0,78,0.00,,,0.00,weatherlink.com 1.10,2013-02-18 09:41:00,
2013-02-18 03:56:00,55.3,49.0,30.19,SW,217,6.0,10.0,79,0.00,,,0.00,weatherlink.com 1.10,2013-02-18 09:56:00,
2013-02-18 04:11:00,55.3,49.0,30.20,SSW,206,7.0,10.0,79,0.00,,,0.00,weatherlink.com 1.10,2013-02-18 10:11:00,
2013-02-18 04:26:00,55.3,50.0,30.19,SSW,197,7.0,10.0,81,0.00,,,0.00,weatherlink.com 1.10,2013-02-18 10:26:00,
2013-02-18 04:41:00,55.4,50.0,30.19,SSW,194,9.0,11.0,81,0.00,,,0.00,weatherlink.com 1.10,2013-02-18 10:41:00,
2013-02-18 04:56:00,55.5,50.0,30.19,South,184,6.0,11.0,81,0.00,,,0.00,weatherlink.com 1.10,2013-02-18 10:56:00,
2013-02-18 05:11:00,55.8,50.0,30.19,South,188,12.0,13.0,81,0.00,,,0.00,weatherlink.com 1.10,2013-02-18 11:11:00,
2013-02-18 05:26:00,55.7,50.0,30.18,South,190,10.0,12.0,82,0.00,,,0.00,weatherlink.com 1.10,2013-02-18 11:26:00,
2013-02-18 05:41:00,55.8,50.0,30.18,South,189,11.0,13.0,82,0.00,,,0.00,weatherlink.com 1.10,2013-02-18 11:41:00,
2013-02-18 05:56:00,56.0,51.0,30.18,South,186,5.0,13.0,82,0.00,,,0.00,weatherlink.com 1.10,2013-02-18 11:56:00,
2013-02-18 06:11:00,56.1,50.0,30.19,South,180,9.0,13.0,81,0.00,,,0.00,weatherlink.com 1.10,2013-02-18 12:11:00,
2013-02-18 06:26:00,56.4,51.0,30.19,South,174,11.0,15.0,81,0.00,,,0.00,weatherlink.com 1.10,2013-02-18 12:26:00,
2013-02-18 06:41:00,56.4,51.0,30.19,South,173,10.0,14.0,81,0.00,,,0.00,weatherlink.com 1.10,2013-02-18 12:41:00,
2013-02-18 06:56:00,56.8,51.0,30.18,South,172,11.0,16.0,80,0.00,,,0.00,weatherlink.com 1.10,2013-02-18 12:56:00,
2013-02-18 07:11:00,57.1,51.0,30.18,South,182,10.0,18.0,79,0.00,,,0.00,weatherlink.com 1.10,2013-02-18 13:11:00,
2013-02-18 07:26:00,57.3,51.0,30.18,SSE,166,17.0,18.0,78,0.00,,,0.00,weatherlink.com 1.10,2013-02-18 13:26:00,
2013-02-18 07:41:00,57.5,51.0,30.18,South,170,14.0,18.0,78,0.00,,,0.00,weatherlink.com 1.10,2013-02-18 13:41:00,
2013-02-18 07:56:00,57.7,51.0,30.18,SSE,161,15.0,19.0,78,0.00,,,0.00,weatherlink.com 1.10,2013-02-18 13:56:00,
2013-02-18 08:11:00,57.8,51.0,30.19,SSE,167,15.0,18.0,77,0.00,,,0.00,weatherlink.com 1.10,2013-02-18 14:11:00,
2013-02-18 08:26:00,57.9,51.0,30.19,South,180,12.0,17.0,78,0.00,,,0.00,weatherlink.com 1.10,2013-02-18 14:26:00,
2013-02-18 08:41:00,58.0,51.0,30.19,South,178,13.0,17.0,78,0.00,,,0.00,weatherlink.com 1.10,2013-02-18 14:41:00,
2013-02-18 08:56:00,58.1,51.0,30.20,South,171,13.0,18.0,77,0.00,,,0.00,weatherlink.com 1.10,2013-02-18 14:56:00,
2013-02-18 09:11:00,58.2,51.0,30.20,SSE,161,15.0,16.0,78,0.00,,,0.00,weatherlink.com 1.10,2013-02-18 15:11:00,
2013-02-18 09:27:00,58.3,52.0,30.20,South,173,12.0,19.0,79,0.00,,,0.00,weatherlink.com 1.10,2013-02-18 15:27:00,
2013-02-18 09:42:00,58.4,52.0,30.20,South,180,13.0,17.0,79,0.00,,,0.00,weatherlink.com 1.10,2013-02-18 15:42:00,
2013-02-18 09:57:00,58.7,52.0,30.20,South,175,13.0,19.0,78,0.00,,,0.00,weatherlink.com 1.10,2013-02-18 15:57:00,
2013-02-18 10:12:00,58.7,52.0,30.20,SSE,167,16.0,18.0,79,0.00,,,0.00,weatherlink.com 1.10,2013-02-18 16:12:00,
2013-02-18 10:27:00,58.6,52.0,30.20,South,180,12.0,18.0,79,0.00,,,0.00,weatherlink.com 1.10,2013-02-18 16:27:00,
2013-02-18 10:42:00,58.7,52.0,30.21,South,180,12.0,17.0,79,0.00,,,0.00,weatherlink.com 1.10,2013-02-18 16:42:00,
2013-02-18 10:57:00,58.6,52.0,30.20,South,174,14.0,18.0,79,0.00,,,0.00,weatherlink.com 1.10,2013-02-18 16:57:00,
2013-02-18 11:12:00,58.7,52.0,30.20,SSW,192,11.0,19.0,79,0.00,,,0.00,weatherlink.com 1.10,2013-02-18 17:12:00,
2013-02-18 11:27:00,58.8,52.0,30.20,South,184,12.0,18.0,78,0.00,,,0.00,weatherlink.com 1.10,2013-02-18 17:27:00,
2013-02-18 11:42:00,58.7,52.0,30.20,South,169,19.0,19.0,79,0.00,,,0.00,weatherlink.com 1.10,2013-02-18 17:42:00,
2013-02-18 11:57:00,58.8,52.0,30.18,South,183,16.0,22.0,78,0.00,,,0.00,weatherlink.com 1.10,2013-02-18 17:57:00,
2013-02-18 12:12:00,58.7,52.0,30.17,South,175,18.0,22.0,79,0.00,,,0.00,weatherlink.com 1.10,2013-02-18 18:12:00,
2013-02-18 12:27:00,58.7,52.0,30.16,South,180,15.0,23.0,79,0.00,,,0.00,weatherlink.com 1.10,2013-02-18 18:27:00,
2013-02-18 12:42:00,58.9,52.0,30.14,South,169,19.0,22.0,78,0.00,,,0.00,weatherlink.com 1.10,2013-02-18 18:42:00,
2013-02-18 12:57:00,59.1,52.0,30.13,South,180,14.0,23.0,78,0.00,,,0.00,weatherlink.com 1.10,2013-02-18 18:57:00,
2013-02-18 13:12:00,59.3,52.0,30.13,South,171,19.0,22.0,77,0.00,,,0.00,weatherlink.com 1.10,2013-02-18 19:12:00,
2013-02-18 13:27:00,59.1,52.0,30.12,South,171,20.0,21.0,77,0.00,,,0.00,weatherlink.com 1.10,2013-02-18 19:27:00,
2013-02-18 13:42:00,59.1,52.0,30.12,SSE,166,18.0,22.0,78,0.00,,,0.00,weatherlink.com 1.10,2013-02-18 19:42:00,
2013-02-18 13:57:00,59.3,52.0,30.11,South,170,18.0,21.0,78,0.00,,,0.00,weatherlink.com 1.10,2013-02-18 19:57:00,
2013-02-18 14:12:00,59.4,53.0,30.11,SSE,167,18.0,22.0,78,0.00,,,0.00,weatherlink.com 1.10,2013-02-18 20:12:00,
2013-02-18 14:27:00,59.6,52.0,30.10,South,178,14.0,22.0,77,0.00,,,0.00,weatherlink.com 1.10,2013-02-18 20:27:00,
2013-02-18 14:42:00,59.3,52.0,30.10,South,169,16.0,20.0,78,0.00,,,0.00,weatherlink.com 1.10,2013-02-18 20:42:00,
2013-02-18 14:57:00,59.2,53.0,30.09,SSE,167,15.0,21.0,79,0.00,,,0.00,weatherlink.com 1.10,2013-02-18 20:57:00,
2013-02-18 15:12:00,59.2,53.0,30.09,South,172,14.0,19.0,79,0.00,,,0.00,weatherlink.com 1.10,2013-02-18 21:12:00,
2013-02-18 15:27:00,59.1,53.0,30.08,South,182,16.0,21.0,80,0.00,,,0.00,weatherlink.com 1.10,2013-02-18 21:27:00,
2013-02-18 15:42:00,59.0,53.0,30.07,South,170,15.0,22.0,81,0.00,,,0.00,weatherlink.com 1.10,2013-02-18 21:42:00,
2013-02-18 15:57:00,59.3,54.0,30.07,South,169,18.0,19.0,81,0.00,,,0.00,weatherlink.com 1.10,2013-02-18 21:57:00,
2013-02-18 16:12:00,59.2,54.0,30.06,South,169,19.0,19.0,83,0.00,,,0.00,weatherlink.com 1.10,2013-02-18 22:12:00,
2013-02-18 16:27:00,59.5,54.0,30.06,SSE,168,15.0,21.0,83,0.00,,,0.00,weatherlink.com 1.10,2013-02-18 22:27:00,
2013-02-18 16:42:00,59.5,54.0,30.05,SSE,165,12.0,20.0,83,0.00,,,0.00,weatherlink.com 1.10,2013-02-18 22:42:00,
2013-02-18 16:57:00,59.7,55.0,30.04,SSE,167,16.0,22.0,83,0.00,,,0.00,weatherlink.com 1.10,2013-02-18 22:57:00,
2013-02-18 17:12:00,59.7,55.0,30.04,South,173,14.0,21.0,83,0.00,,,0.00,weatherlink.com 1.10,2013-02-18 23:12:00,
2013-02-18 17:27:00,59.9,55.0,30.04,South,172,17.0,21.0,83,0.00,,,0.00,weatherlink.com 1.10,2013-02-18 23:27:00,
2013-02-18 17:42:00,59.9,55.0,30.04,South,173,15.0,19.0,84,0.00,,,0.00,weatherlink.com 1.10,2013-02-18 23:42:00,
2013-02-18 17:57:00,59.8,55.0,30.04,South,171,17.0,19.0,85,0.00,,,0.00,weatherlink.com 1.10,2013-02-18 23:57:00,
2013-02-18 18:12:00,59.8,55.0,30.05,South,181,11.0,19.0,85,0.00,,,0.00,weatherlink.com 1.10,2013-02-19 00:12:00,
2013-02-18 18:27:00,59.8,56.0,30.04,South,171,16.0,19.0,86,0.00,,,0.00,weatherlink.com 1.10,2013-02-19 00:27:00,
2013-02-18 18:42:00,59.9,56.0,30.04,South,177,13.0,19.0,86,0.00,,,0.00,weatherlink.com 1.10,2013-02-19 00:42:00,
2013-02-18 18:57:00,60.0,56.0,30.02,South,180,11.0,19.0,86,0.00,,,0.00,weatherlink.com 1.10,2013-02-19 00:57:00,
2013-02-18 19:12:00,59.9,56.0,30.03,South,184,12.0,20.0,87,0.00,,,0.00,weatherlink.com 1.10,2013-02-19 01:12:00,
2013-02-18 19:27:00,60.0,56.0,30.03,South,172,13.0,18.0,87,0.00,,,0.00,weatherlink.com 1.10,2013-02-19 01:27:00,
2013-02-18 19:42:00,60.0,57.0,30.03,South,171,13.0,18.0,88,0.00,,,0.00,weatherlink.com 1.10,2013-02-19 01:42:00,
2013-02-18 19:57:00,60.1,57.0,30.03,South,175,15.0,21.0,88,0.00,,,0.00,weatherlink.com 1.10,2013-02-19 01:57:00,
2013-02-18 20:12:00,60.0,57.0,30.03,SSW,195,10.0,18.0,89,0.00,,,0.00,weatherlink.com 1.10,2013-02-19 02:12:00,
2013-02-18 20:27:00,60.0,57.0,30.03,South,189,13.0,19.0,89,0.00,,,0.00,weatherlink.com 1.10,2013-02-19 02:27:00,
2013-02-18 20:43:00,60.0,57.0,30.03,South,184,15.0,21.0,90,0.00,,,0.00,weatherlink.com 1.10,2013-02-19 02:43:00,
2013-02-18 20:57:00,59.8,57.0,30.02,South,186,18.0,20.0,91,0.00,,,0.00,weatherlink.com 1.10,2013-02-19 02:57:00,
2013-02-18 21:13:00,59.6,57.0,30.02,SSW,192,14.0,19.0,92,0.00,,,0.00,weatherlink.com 1.10,2013-02-19 03:13:00,
2013-02-18 21:28:00,59.9,57.0,30.01,South,177,12.0,19.0,91,0.00,,,0.00,weatherlink.com 1.10,2013-02-19 03:28:00,
2013-02-18 21:43:00,60.2,57.0,30.00,South,187,16.0,20.0,90,0.00,,,0.00,weatherlink.com 1.10,2013-02-19 03:43:00,
2013-02-18 21:58:00,60.4,58.0,30.00,South,182,18.0,22.0,90,0.00,,,0.00,weatherlink.com 1.10,2013-02-19 03:58:00,
2013-02-18 22:13:00,60.3,58.0,30.00,SSW,200,15.0,19.0,91,0.00,,,0.00,weatherlink.com 1.10,2013-02-19 04:13:00,
2013-02-18 22:28:00,61.0,58.0,30.00,South,191,14.0,17.0,89,0.00,,,0.00,weatherlink.com 1.10,2013-02-19 04:28:00,
2013-02-18 22:43:00,60.7,58.0,29.99,SSW,196,15.0,18.0,90,0.00,,,0.00,weatherlink.com 1.10,2013-02-19 04:43:00,
2013-02-18 22:58:00,60.5,58.0,29.98,SSW,194,14.0,16.0,91,0.00,,,0.00,weatherlink.com 1.10,2013-02-19 04:58:00,
2013-02-18 23:13:00,60.4,58.0,29.98,SSW,208,11.0,18.0,92,0.00,,,0.00,weatherlink.com 1.10,2013-02-19 05:13:00,
2013-02-18 23:28:00,60.4,58.0,29.98,SSW,209,13.0,20.0,91,0.00,,,0.00,weatherlink.com 1.10,2013-02-19 05:28:00,
2013-02-18 23:43:00,60.3,58.0,29.98,SW,221,15.0,20.0,92,0.00,,,0.00,weatherlink.com 1.10,2013-02-19 05:43:00,
2013-02-18 23:58:00,60.1,58.0,29.98,SW,227,14.0,18.0,92,0.00,,,0.00,weatherlink.com 1.10,2013-02-19 05:58:00,